Location: Hackberry
(29.5783°N, 96.8797°W)
Time: 13:37:02
(UTC+00:00)

Transit 2A - Pass Details

Date: 07 November 2024
Orbit: 592 x 956 km, 66.7° (Epoch: 02 December)

Event Time Altitude Azimuth Distance (km) Brightness Sun altitude
Rises 10:21:54 0° 167° (SSE) 3,493 9.6 -31.5°
Reaches altitude 10° 10:24:55 10° 152° (SSE) 2,602 9.0 -30.9°
Maximum altitude 10:29:26 22° 104° (ESE) 1,943 8.7 -29.9°
Drops below altitude 10° 10:34:03 10° 57° (ENE) 2,684 9.4 -28.9°
Sets 10:37:12 0° 43° (NE) 3,634 10.0 -28.2°
